Location: Bacea
(45.9500°N, 22.6667°E)
Time: 19:36:45
(UTC+00:00)

Envisat - Pass Details

Date: 28 January 2022
Orbit: 764 x 765 km, 98.2° (Epoch: 22 May)

Event Time Altitude Azimuth Distance (km) Brightness Sun altitude
Rises 16:00:34 0° 219° (SW) 3,218 7.4 -5.9°
Reaches altitude 10° 16:04:18 10° 247° (WSW) 2,299 7.3 -6.5°
Maximum altitude 16:06:28 13° 273° (W) 2,123 6.6 -6.9°
Drops below altitude 10° 16:08:38 10° 299° (WNW) 2,306 6.2 -7.3°
Sets 16:12:25 0° 327° (NNW) 3,239 6.4 -7.9°
